Jackson, MN

4:24 AM CDT on April 24, 2018 (GMT -0500)
Jackson Municipal

Weather History for KMJQ - January, 2013

Change the Weather History Date:

Wednesday, January 9, 2013

  Actual Average Record
Temperature  
Mean Temperature 32 °F -  
Max Temperature 35 °F 22 °F 53 °F (2002)
Min Temperature 28 °F 7 °F -20 °F (1999)
Degree Days  
Heating Degree Days 34    
Moisture  
Dew Point 26 °F    
Average Humidity 78    
Maximum Humidity 87    
Minimum Humidity 64    
Precipitation  
Precipitation 0.00 in - - ()
Sea Level Pressure  
Sea Level Pressure 30.22 in    
Wind  
Wind Speed 13 mph (SW)    
Max Wind Speed 21 mph    
Max Gust Speed 29 mph    
Visibility 10 miles    
Events      
Averages and records for this station are not official NWS values.
T = Trace of Precipitation, MM = Missing Value Source: NWS Daily Summary

Daily Weather History Graph

Daily Weather History Graph

Search for Another Location

Airport or City:

Astronomy

Jan. 09, 2013 Rise Set
Actual Time 7:52 AM CST 5:02 PM CST
Civil Twilight 7:20 AM CST 5:34 PM CST
Nautical Twilight 6:44 AM CST 6:10 PM CST
Astronomical Twilight 6:10 AM CST 6:44 PM CST
Moon 5:32 AM CST (1/9) 3:04 PM CST (1/9)
Length of Visible Light 10h 14m
Length of Day
9h 09m
Waning Crescent, 6% of the Moon is Illuminated
Jan 9
Waning Crescent
Jan 11
New
Jan 18
First Quarter
Jan 26
Full
Feb 3
Last Quarter

Hourly Weather History & Observations

Time (CST) Temp. Windchill Dew Point Humidity Pressure Visibility Wind Dir Wind Speed Gust Speed Precip Events Conditions
12:13 AM 32.0 °F 22.1 °F 26.6 °F 80% 30.00 in 10.0 mi West 13.8 mph - N/A   Mostly Cloudy
12:33 AM 32.0 °F 22.5 °F 26.6 °F 80% 30.00 in 10.0 mi West 12.7 mph 19.6 mph N/A   Scattered Clouds
12:53 AM 32.0 °F 22.1 °F 26.6 °F 80% 30.01 in 10.0 mi West 13.8 mph - N/A   Clear
1:13 AM 32.0 °F 21.6 °F 26.6 °F 80% 30.02 in 10.0 mi West 15.0 mph 18.4 mph N/A   Scattered Clouds
1:33 AM 32.0 °F 22.1 °F 26.6 °F 80% 30.03 in 10.0 mi West 13.8 mph - N/A   Mostly Cloudy
1:53 AM 32.0 °F 22.5 °F 26.6 °F 80% 30.03 in 10.0 mi West 12.7 mph - N/A   Scattered Clouds
2:13 AM 30.2 °F 20.2 °F 26.6 °F 86% 30.05 in 10.0 mi West 12.7 mph - N/A   Clear
2:32 AM 32.0 °F 21.6 °F 26.6 °F 80% 30.06 in 10.0 mi West 15.0 mph - N/A   Clear
2:53 AM 30.2 °F 19.3 °F 26.6 °F 86% 30.06 in 10.0 mi West 15.0 mph - N/A   Clear
3:13 AM 32.0 °F 21.2 °F 26.6 °F 80% 30.07 in 10.0 mi West 16.1 mph 20.7 mph N/A   Clear
3:32 AM 32.0 °F 21.2 °F 26.6 °F 80% 30.07 in 10.0 mi West 16.1 mph - N/A   Clear
3:53 AM 32.0 °F 20.5 °F 26.6 °F 80% 30.08 in 10.0 mi West 18.4 mph - N/A   Clear
4:13 AM 32.0 °F 19.8 °F 26.6 °F 80% 30.09 in 10.0 mi West 20.7 mph 25.3 mph N/A   Clear
4:32 AM 32.0 °F 19.8 °F 26.6 °F 80% 30.10 in 10.0 mi West 20.7 mph - N/A   Clear
4:53 AM 32.0 °F 19.8 °F 28.4 °F 87% 30.10 in 10.0 mi West 20.7 mph 28.8 mph N/A   Clear
5:13 AM 32.0 °F 20.5 °F 26.6 °F 80% 30.10 in 10.0 mi West 18.4 mph 25.3 mph N/A   Clear
5:33 AM 32.0 °F 20.1 °F 26.6 °F 80% 30.10 in 10.0 mi West 19.6 mph 25.3 mph N/A   Clear
6:13 AM 32.0 °F 21.2 °F 24.8 °F 75% 30.12 in 10.0 mi WNW 16.1 mph 23.0 mph N/A   Clear
6:33 AM 32.0 °F 21.2 °F 23.0 °F 69% 30.12 in 10.0 mi WNW 16.1 mph 19.6 mph N/A   Clear
6:53 AM 30.2 °F 19.3 °F 23.0 °F 75% 30.14 in 10.0 mi WNW 15.0 mph 20.7 mph N/A   Clear
7:13 AM 32.0 °F 21.2 °F 23.0 °F 69% 30.14 in 10.0 mi WNW 16.1 mph 21.9 mph N/A   Clear
7:32 AM 30.2 °F 19.8 °F 23.0 °F 75% 30.15 in 10.0 mi NW 13.8 mph - N/A   Clear
7:53 AM 30.2 °F 20.8 °F 21.2 °F 69% 30.15 in 10.0 mi WNW 11.5 mph - N/A   Clear
8:32 AM 30.2 °F 23.4 °F 21.2 °F 69% 30.19 in 10.0 mi West 6.9 mph - N/A   Clear
8:53 AM 28.4 °F 20.4 °F 21.2 °F 74% 30.19 in 10.0 mi West 8.1 mph - N/A   Clear
9:13 AM 28.4 °F 19.7 °F 21.2 °F 74% 30.19 in 10.0 mi NW 9.2 mph - N/A   Clear
9:32 AM 30.2 °F 22.6 °F 21.2 °F 69% 30.23 in 10.0 mi WSW 8.1 mph - N/A   Clear
9:53 AM 30.2 °F 24.3 °F 21.2 °F 69% 30.25 in 10.0 mi SW 5.8 mph - N/A   Clear
10:13 AM 30.2 °F 21.3 °F 21.2 °F 69% 30.27 in 10.0 mi SW 10.4 mph - N/A   Clear
10:32 AM 30.2 °F 21.9 °F 21.2 °F 69% 30.30 in 10.0 mi SW 9.2 mph - N/A   Clear
10:53 AM 32.0 °F 24.8 °F 21.2 °F 64% 30.30 in 10.0 mi WSW 8.1 mph - N/A   Clear
11:13 AM 32.0 °F 24.8 °F 21.2 °F 64% 30.30 in 10.0 mi WSW 8.1 mph - N/A   Clear
11:53 AM 32.0 °F 23.6 °F 23.0 °F 69% 30.32 in 10.0 mi WSW 10.4 mph - N/A   Clear
12:13 PM 32.0 °F 23.6 °F 23.0 °F 69% 30.33 in 10.0 mi SW 10.4 mph - N/A   Clear
12:33 PM 32.0 °F 21.6 °F 24.8 °F 75% 30.33 in 10.0 mi SW 15.0 mph - N/A   Clear
12:53 PM 32.0 °F 24.2 °F 24.8 °F 75% 30.33 in 10.0 mi SW 9.2 mph - N/A   Clear
1:13 PM 33.8 °F 24.3 °F 26.6 °F 75% 30.35 in 10.0 mi SSW 13.8 mph - N/A   Clear
1:33 PM 33.8 °F 26.4 °F 26.6 °F 75% 30.35 in 10.0 mi SW 9.2 mph - N/A   Clear
1:53 PM 33.8 °F 26.4 °F 26.6 °F 75% 30.35 in 10.0 mi SW 9.2 mph - N/A   Clear
2:13 PM 35.6 °F 30.7 °F 26.6 °F 70% 30.34 in 10.0 mi SW 5.8 mph - N/A   Clear
2:33 PM 35.6 °F 28.0 °F 26.6 °F 70% 30.35 in 10.0 mi SSW 10.4 mph - N/A   Clear
2:53 PM 35.6 °F 29.9 °F 28.4 °F 75% 30.33 in 10.0 mi SW 6.9 mph - N/A   Clear
3:13 PM 35.6 °F - 28.4 °F 75% 30.31 in 10.0 mi Calm Calm - N/A   Clear
3:33 PM 33.8 °F 28.6 °F 26.6 °F 75% 30.31 in 10.0 mi SW 5.8 mph - N/A   Clear
3:53 PM 35.6 °F 29.9 °F 26.6 °F 70% 30.31 in 10.0 mi SSW 6.9 mph - N/A   Clear
4:13 PM 33.8 °F 30.8 °F 26.6 °F 75% 30.31 in 10.0 mi South 3.5 mph - N/A   Clear
4:33 PM 33.8 °F 27.7 °F 26.6 °F 75% 30.32 in 10.0 mi South 6.9 mph - N/A   Clear
4:53 PM 33.8 °F 27.0 °F 26.6 °F 75% 30.31 in 10.0 mi SSE 8.1 mph - N/A   Clear
5:13 PM 32.0 °F 25.6 °F 26.6 °F 80% 30.31 in 10.0 mi SSE 6.9 mph - N/A   Clear
5:33 PM 32.0 °F 26.4 °F 26.6 °F 80% 30.28 in 10.0 mi SSE 5.8 mph - N/A   Clear
5:53 PM 32.0 °F 23.6 °F 26.6 °F 80% 30.29 in 10.0 mi South 10.4 mph - N/A   Clear
6:13 PM 32.0 °F 24.2 °F 26.6 °F 80% 30.29 in 10.0 mi South 9.2 mph - N/A   Clear
6:33 PM 32.0 °F 23.6 °F 26.6 °F 80% 30.29 in 10.0 mi SSE 10.4 mph - N/A   Clear
7:13 PM 32.0 °F 23.6 °F 26.6 °F 80% 30.30 in 10.0 mi South 10.4 mph - N/A   Clear
7:33 PM 32.0 °F 22.5 °F 26.6 °F 80% 30.30 in 10.0 mi South 12.7 mph - N/A   Clear
7:53 PM 32.0 °F 22.5 °F 28.4 °F 87% 30.30 in 10.0 mi South 12.7 mph - N/A   Clear
8:12 PM 32.0 °F 22.5 °F 28.4 °F 87% 30.29 in 10.0 mi South 12.7 mph - N/A   Clear
8:33 PM 32.0 °F 23.0 °F 28.4 °F 87% 30.28 in 10.0 mi South 11.5 mph - N/A   Clear
8:52 PM 32.0 °F 23.6 °F 28.4 °F 87% 30.27 in 10.0 mi South 10.4 mph - N/A   Clear
9:13 PM 32.0 °F 22.5 °F 28.4 °F 87% 30.27 in 10.0 mi South 12.7 mph 17.3 mph N/A   Clear
9:33 PM 32.0 °F 22.1 °F 28.4 °F 87% 30.27 in 10.0 mi South 13.8 mph - N/A   Clear
9:52 PM 32.0 °F 22.5 °F 28.4 °F 87% 30.27 in 10.0 mi South 12.7 mph - N/A   Clear
10:13 PM 32.0 °F 22.1 °F 28.4 °F 87% 30.27 in 10.0 mi South 13.8 mph - N/A   Clear
10:33 PM 32.0 °F 21.2 °F 28.4 °F 87% 30.27 in 10.0 mi South 16.1 mph - N/A   Clear
10:53 PM 32.0 °F 21.6 °F 28.4 °F 87% 30.27 in 10.0 mi South 15.0 mph - N/A   Clear
11:13 PM 32.0 °F 21.2 °F 28.4 °F 87% 30.27 in 10.0 mi South 16.1 mph - N/A   Clear
11:33 PM 32.0 °F 21.6 °F 28.4 °F 87% 30.27 in 10.0 mi South 15.0 mph - N/A   Clear
11:53 PM 32.0 °F 21.6 °F 28.4 °F 87% 30.27 in 10.0 mi South 15.0 mph - N/A   Clear